Terminal Aerodrome Forecast
Issued by NWS

Home | Current Version | Previous Version | Text Only | Print | Product List | Glossary On
Versions: 1 2 3 4 5 6 7 8 9 10 11 12
000
FTUS45 KRIW 242300
TAFJAC
TAF
KJAC 242333Z 2500/2524 VRB05KT P6SM -SN OVC030
     FM250900 19008KT P6SM VCSH SCT028 OVC035
      AMD LTD TO CLD VIS AND WIND=

USA.gov is the U.S. government's official web portal to all federal, state and local government web resources and services.